默认 日期 大小 文件数 浏览量 最新下载 xml
der-磁力链接相关资源由用户搜索指令自动获取,结果来源于网络,本站不存储任何资料,亦不承担任何责任,请于24小时内删除,搜索到14319个磁力,显示前4000条数据,用时16ms。
    {"Links.txt": 271, "Preview Video.mp4": 227432058}
创建时间: 2026-03-24 16:40:41 大小:216.9 MB 文件数量:2 热度:0
    ... St Michaelskerk Zwolle - Anthon v der Horst.mp3": 11414393, "5 ... St Michaelskerk Zwolle - Anthon v der Horst.afpk": 171528, "5 ... St Michaelskerk Zwolle - Anthon v der Horst.flac": 32786940, "5- ... -st-michaelskerk-zwolle-anthon-v-der-horst_meta.sqlite": 45056, "1 ...
创建时间: 2026-03-24 10:59:50 大小:88.64 MB 文件数量:32 热度:0
    ... Greg Walters - Die Akademie der schwarzen Feldschere 1.epub": ... "04 - Das Handwerk der Kriegskunst und der Armseligkeit.mp3": 38891354, ... , Greg - Die Akademie der schwarzen Feldschere 2.epub": ... 32078661, "04 - Der Blitz, der Marder und der Baum.mp3": 27446419 ...
创建时间: 2026-03-23 15:23:08 大小:1.64 GB 文件数量:74 热度:0
    ... .mp3": 6377361, "05. Schwarz wie der Tod.mp3": 7965614, "01. Ohne ... .mp3": 8855869, "10. Süß Ist Der Schnitt.mp3": 6844440, "11. Wenn ...
创建时间: 2026-03-23 12:33:57 大小:85.74 MB 文件数量:12 热度:0
    ... Nr.1.url": 187, "Board der Zukunft.url": 187, "Bollywood Board ...
创建时间: 2026-03-22 09:40:32 大小:710.25 MB 文件数量:11 热度:0
    {"Sample": {"ifpd-asphaltcowboys.s01e04-sd-sample.mkv": 12180774}, "www.Torrenting.com.txt": 382, "First Read This Guide.txt": 382, "ifpd-asphaltcowboys.s01e04-sd.mkv": 642163243, "ifpd-asphaltcowboys.s01e04-sd.nfo": 1950}
创建时间: 2026-03-20 19:31:59 大小:624.03 MB 文件数量:5 热度:0
    ... "523851": 523851}, "Sam Feuerbach - Der Totengräbersohn 1 (ungekürzt ... .jpg": 52594, "01 - Der Totengräbersohn 1.mp3": 195751 ... mp3": 25861722, "Sam Feuerbach - Der Totengräbersohn - Band 3 - ... 61kuBIhcOnL.jpg": 68780, "001 - Der Totengräbersohn 4.mp3": 309251 ...
创建时间: 2026-03-20 15:48:55 大小:2.35 GB 文件数量:174 热度:0
    {"INFO.nfo": 6866, "Cover.jpg": 50321, "F1.Der.Film.2025.German.WEBRip.DL.1080p.x265-2BA.mkv": 3046762209}
创建时间: 2026-03-20 11:03:17 大小:2.84 GB 文件数量:3 热度:0
    ... .nfo": 1632, "Perry Rhodan 3303 - Der Conduit": {"PR3303_Zusatz-PDF.pdf": 2017542 ...
创建时间: 2026-03-19 08:45:33 大小:300.58 MB 文件数量:59 热度:0
    {"Sample": {"tvp-sattelclub-s03e25-480p-sample.mkv": 11135142}, "www.Torrenting.com.txt": 382, "First Read This Guide.txt": 382, "tvp-sattelclub-s03e25-480p.mkv": 307184052, "tvp-sattelclub-s03e25-480p.nfo": 5088}
创建时间: 2026-03-19 08:23:48 大小:303.58 MB 文件数量:5 热度:0
    {"Aus dem Leben der Marionetten От живота на марионетките ( ... 1980) filmzone": {"Aus dem Leben der Marionetten От живота на марионетките ... .avi": 830461440, "Aus dem Leben der Marionetten От живота на марионетките ...
创建时间: 2026-03-18 19:47:48 大小:792.08 MB 文件数量:2 热度:0
    ... 5037, "Die heilsame Kraft der Meditation - ARTE.mp4": 426278876, ... "Die heilsame Kraft der Meditation - ARTE.ia.mp4 ... 426278876, "die-heilsame-kraft-der-meditation-arte_meta.xml": 789, ... "die-heilsame-kraft-der-meditation-arte_meta.sqlite": 20480}
创建时间: 2026-03-18 19:07:48 大小:813.09 MB 文件数量:5 热度:0
    ... 8 - Wind [B0095T9T40].m4b": 639264111, "Der dunkle Turm 1 - Schwarz [B004V34CHO ... ].m4b": 464825977, "Der dunkle Turm 6 - Susannah [B004UZKKWO ... ].m4b": 937256973, "Der dunkle Turm 7 - Der Turm [B004V0AAZK].m4b": 2011580460 ...
创建时间: 2026-03-18 15:19:32 大小:9.05 GB 文件数量:8 热度:0
    {"Screens": {"screen0001.jpg": 25697, "screen0002.jpg": 13642, "screen0003.jpg": 6431, "screen0004.jpg": 37555}, "watchable-deckelbad-sd.mkv": 895654142, "watchable-deckelbad-sd(2015).nfo": 4103, "Torrent Downloaded From UIndex.org .txt": 129}
创建时间: 2026-03-17 18:57:43 大小:854.25 MB 文件数量:7 热度:0
    ... , "18 - Barbie.Die.geheime.Welt.der.Glitzerfeen.German.2011.AC3.DVDRiP ...
创建时间: 2026-03-17 09:37:44 大小:1.37 GB 文件数量:8 热度:0
    {"cover.jpg": 113278, "front.jpg": 3476301, "01. Intuition.flac": 62023342}
创建时间: 2026-03-17 09:13:42 大小:62.57 MB 文件数量:3 热度:0
    ... flac": 407513667, "lp_staatsmusik-der-renaissance_capella-antiqua-mnchen-konrad- ... flac": 520723430, "lp_staatsmusik-der-renaissance_capella-antiqua-mnchen-konrad- ... json": 2730, "lp_staatsmusik-der-renaissance_capella-antiqua-mnchen-konrad- ...
创建时间: 2026-03-16 18:47:40 大小:4.46 GB 文件数量:246 热度:0
    ... -AS76-FT.mkv": 1241361519, "Der.Bestatter.S02E02.MULTI.1080p.WEB ... -AS76-FT.mkv": 1215797157, "Der.Bestatter.S02E03.MULTI.1080p.WEB ... -AS76-FT.mkv": 1241524294, "Der.Bestatter.S02E04.MULTI.1080p.WEB ... -AS76-FT.mkv": 1239452846, "Der.Bestatter.S02E05.MULTI.1080p.WEB ...
创建时间: 2026-03-16 17:28:12 大小:6.85 GB 文件数量:6 热度:0
    ... , "1240": 2095485}, "der-modelleisenbahner_meta.xml": 1667, "Der Modelleisenbahner 1952-00.pdf ... pdf": 29202610, "der-modelleisenbahner_meta.sqlite": 249856, "Der Modelleisenbahner 1952-00. ... .txt.gz": 29757, "Der Modelleisenbahner 1957-01_hocr_pageindex.json.gz ...
创建时间: 2026-03-16 15:45:44 大小:7.01 GB 文件数量:2478 热度:0
    {"PR3305": {"Perry Rhodan 3305 - Feinde der Wyconder": {"PR3305_Zusatz-PDF.pdf": 2005047, " ...
创建时间: 2026-03-16 15:20:10 大小:276.25 MB 文件数量:61 热度:0